TimeHST,TemperatureF,Dew PointF,Humidity,Sea Level PressureIn,VisibilityMPH,Wind Direction,Wind SpeedMPH,Gust SpeedMPH,PrecipitationIn,Events,Conditions,WindDirDegrees,DateUTC
12:56 AM,66.9,63.9,90,29.99,10.0,North,3.5,-,N/A,,Clear,10,2013-08-20 10:56:00
1:56 AM,66.2,64.4,94,30.05,-9999.0,ENE,3.5,-,N/A,,Clear,60,2013-08-20 11:56:00
2:56 AM,64.9,61.0,87,29.98,-9999.0,NE,3.5,-,N/A,,Clear,40,2013-08-20 12:56:00
3:56 AM,66.9,65.8,96,29.97,10.0,ENE,5.8,-,N/A,,Partly Cloudy,60,2013-08-20 13:56:00
4:56 AM,68.0,63.0,84,29.96,10.0,ESE,3.5,-,N/A,,Mostly Cloudy,110,2013-08-20 14:56:00
5:56 AM,68.9,65.8,90,29.97,10.0,East,4.6,-,N/A,,Mostly Cloudy,80,2013-08-20 15:56:00
6:56 AM,70.0,66.9,90,29.99,10.0,East,4.6,-,N/A,,Scattered Clouds,90,2013-08-20 16:56:00
7:56 AM,72.9,68.9,87,30.00,10.0,East,6.9,-,N/A,,Partly Cloudy,90,2013-08-20 17:56:00
8:56 AM,75.9,65.8,71,30.00,10.0,ENE,3.5,-,N/A,,Partly Cloudy,70,2013-08-20 18:56:00
9:56 AM,84.9,63.0,48,29.99,10.0,Variable,6.9,-,N/A,,Partly Cloudy,0,2013-08-20 19:56:00
10:56 AM,80.6,66.2,61,30.06,10.0,Variable,5.8,-,N/A,,Overcast,0,2013-08-20 20:56:00
11:56 AM,79.9,65.8,62,29.99,10.0,WNW,8.1,-,N/A,,Overcast,290,2013-08-20 21:56:00
12:30 PM,78.8,64.4,61,30.05,10.0,WSW,8.1,-,N/A,,Overcast,250,2013-08-20 22:30:00
12:56 PM,79.9,64.9,60,29.98,10.0,WSW,4.6,-,N/A,,Overcast,240,2013-08-20 22:56:00
1:56 PM,81.0,64.9,58,29.96,10.0,Variable,3.5,-,N/A,,Overcast,0,2013-08-20 23:56:00
2:26 PM,80.6,64.4,58,30.02,10.0,Variable,4.6,-,N/A,,Overcast,0,2013-08-21 00:26:00
2:56 PM,83.8,65.8,55,29.94,10.0,Variable,6.9,-,N/A,,Mostly Cloudy,0,2013-08-21 00:56:00
3:06 PM,82.4,66.2,58,30.01,10.0,Variable,3.5,-,N/A,,Overcast,0,2013-08-21 01:06:00
3:56 PM,84.9,68.0,57,29.94,10.0,West,9.2,-,N/A,,Mostly Cloudy,260,2013-08-21 01:56:00
4:14 PM,82.4,66.2,58,30.00,10.0,Variable,6.9,-,N/A,,Scattered Clouds,0,2013-08-21 02:14:00
4:56 PM,81.0,66.9,62,29.93,10.0,West,6.9,-,N/A,,Partly Cloudy,270,2013-08-21 02:56:00
5:56 PM,79.0,65.8,64,29.94,10.0,Variable,5.8,-,N/A,,Partly Cloudy,0,2013-08-21 03:56:00
6:56 PM,74.8,65.8,73,29.95,10.0,NNW,4.6,-,N/A,,Clear,330,2013-08-21 04:56:00
7:56 PM,72.9,66.9,82,29.97,10.0,ENE,5.8,-,N/A,,Clear,60,2013-08-21 05:56:00
8:56 PM,72.9,68.0,85,29.98,10.0,NNE,8.1,-,N/A,,Clear,30,2013-08-21 06:56:00
9:56 PM,72.0,68.0,87,29.98,10.0,NNE,6.9,-,N/A,,Clear,30,2013-08-21 07:56:00
10:56 PM,72.0,68.9,90,29.99,-9999.0,NE,4.6,-,N/A,,Mostly Cloudy,50,2013-08-21 08:56:00
11:14 PM,71.6,69.8,94,30.06,10.0,Calm,Calm,-,N/A,,Partly Cloudy,0,2013-08-21 09:14:00
11:39 PM,71.6,69.8,94,30.05,-9999.0,NNE,5.8,-,N/A,,Mostly Cloudy,20,2013-08-21 09:39:00
11:56 PM,72.0,68.9,90,29.99,-9999.0,NNE,8.1,-,N/A,,Mostly Cloudy,20,2013-08-21 09:56:00